Starlink 5449

operational
NORAD ID: 54780 Int'l Des: 2022-175 Owner: SPXS Country: US Constellation: starlink
LEOCIRCULAR

关于 Starlink 5449

正在加载描述...

实时位置

正在加载3D地球...

即将过境

高度历史

Altitude vs Time

uPlot chart will show altitude changes over time

两行轨道根数

1 54780U 22175Y 25351.37183003 -.00000894 00000-0 -38112-4 0 9994
2 54780 53.2179 38.5633 0001299 79.8992 280.2147 15.08838116167702
Epoch: Dec 17, 2025 • Age: 16 hours

当前状态

高度 539.8 km
速度 7.59 km/s
星下点 6.81°N, 59.1°W
发射日期 Dec 17, 2022
运行时间 3 years
类型 internet

技术详情

分类 Payload
质量 305.00 kg
干质量 290.00 kg
总质量 305.00 kg
长度 0.20 m
直径 2.80 m
跨度 9.00 m
形状 Box + pan
制造商 SPXS
平台类型 Starlink
阶段状态 In Orbit
所有者/国家 SPXS/US

大型星座

Loading constellations...